Location: Unspecified
(42.9300°N, 71.1866°W)
Time: 22:16:04
(UTC-04:00)

HST - Visible Passes

Search period start: 22 October 2014 00:00
Search period end: 01 November 2014 00:00
Orbit: 546 x 550 km, 28.5° (Epoch: 22 October)

Date Brightness Start Highest point End Pass type
(mag) Time Alt. Az. Time Alt. Az. Time Alt. Az.
29 Oct 3.4 18:44:16 10° S 18:44:44 10° S 18:45:11 10° SSE visible
30 Oct 3.4 18:36:13 10° S 18:37:14 11° S 18:38:15 10° SSE visible
31 Oct 3.4 18:28:34 10° SSW 18:29:44 11° S 18:30:55 10° SSE visible
